| time (UTC) | temp F | wind direction | speed MPH | gust MPH | rain 1hr in | rain 24hr in | rain mn in | humidity % | barometer mb |
| 20260507024601 | 56 | 192 | 1.0 | 4.0 | 0.00 | 0.08 | 0.08 | 98 | 1007.3 |
| 20260507023051 | 56 | 184 | 1.0 | 6.0 | 0.00 | 0.08 | 0.08 | 98 | 1007.5 |
| 20260507021551 | 56 | 172 | 1.0 | 7.0 | 0.00 | 0.08 | 0.08 | 98 | 1007.6 |
| 20260507020050 | 56 | 173 | 1.0 | 8.0 | 0.00 | 0.08 | 0.08 | 98 | 1007.6 |
| 20260507014559 | 56 | 197 | 1.0 | 6.0 | 0.00 | 0.08 | 0.08 | 98 | 1007.5 |
| 20260507013051 | 56 | 227 | 2.0 | 7.0 | 0.00 | 0.08 | 0.08 | 97 | 1007.5 |
| 20260507011548 | 56 | 167 | 3.0 | 10.0 | 0.00 | 0.08 | 0.08 | 97 | 1007.1 |
| 20260507010054 | 56 | 162 | 2.0 | 7.0 | 0.00 | 0.08 | 0.08 | 97 | 1007.1 |
| 20260507004552 | 56 | 161 | 2.0 | 6.0 | 0.00 | 0.08 | 0.08 | 97 | 1007.2 |
| 20260507003046 | 56 | 145 | 2.0 | 12.0 | 0.00 | 0.08 | 0.08 | 97 | 1007.4 |
| 20260507001551 | 56 | 173 | 2.0 | 8.0 | 0.00 | 0.08 | 0.08 | 97 | 1007.3 |
| 20260507000047 | 56 | 191 | 2.0 | 6.0 | 0.00 | 0.08 | 0.08 | 97 | 1007.3 |
| 20260506234545 | 56 | 172 | 1.0 | 10.0 | 0.00 | 0.08 | 0.08 | 97 | 1007.3 |
| 20260506233049 | 56 | 130 | 3.0 | 12.0 | 0.00 | 0.08 | 0.08 | 97 | 1007.2 |
| 20260506231543 | 56 | 163 | 2.0 | 9.0 | 0.00 | 0.08 | 0.08 | 97 | 1007.1 |
| 20260506230043 | 56 | 189 | 2.0 | 7.0 | 0.00 | 0.08 | 0.08 | 96 | 1007.0 |
| 20260506224542 | 56 | 138 | 2.0 | 5.0 | 0.00 | 0.08 | 0.08 | 96 | 1006.9 |
| 20260506223041 | 56 | 150 | 3.0 | 9.0 | 0.01 | 0.08 | 0.08 | 96 | 1006.9 |
| 20260506221540 | 56 | 212 | 2.0 | 10.0 | 0.01 | 0.08 | 0.08 | 96 | 1007.0 |
| 20260506220046 | 56 | 137 | 1.0 | 8.0 | 0.02 | 0.08 | 0.08 | 96 | 1006.9 |
| 20260506214549 | 57 | 151 | 1.0 | 8.0 | 0.02 | 0.08 | 0.08 | 96 | 1006.9 |
| 20260506213036 | 57 | 126 | 3.0 | 9.0 | 0.02 | 0.07 | 0.07 | 96 | 1006.9 |
| 20260506211535 | 57 | 163 | 3.0 | 9.0 | 0.02 | 0.07 | 0.07 | 95 | 1007.1 |
| 20260506210035 | 57 | 175 | 1.0 | 9.0 | 0.01 | 0.06 | 0.06 | 95 | 1007.2 |
| 20260506204532 | 57 | 165 | 0.0 | 7.0 | 0.01 | 0.06 | 0.06 | 95 | 1007.3 |
| 20260506203032 | 57 | 128 | 3.0 | 9.0 | 0.00 | 0.05 | 0.05 | 95 | 1007.5 |
| 20260506201533 | 57 | 191 | 5.0 | 11.0 | 0.00 | 0.05 | 0.05 | 95 | 1007.3 |
| 20260506200030 | 57 | 178 | 2.0 | 11.0 | 0.00 | 0.05 | 0.05 | 95 | 1007.6 |
| 20260506194529 | 57 | 209 | 4.0 | 16.0 | 0.01 | 0.05 | 0.05 | 95 | 1007.7 |
| 20260506193027 | 57 | 124 | 2.0 | 11.0 | 0.03 | 0.05 | 0.05 | 94 | 1007.8 |
| 20260506191526 | 57 | 186 | 6.0 | 13.0 | 0.04 | 0.05 | 0.05 | 93 | 1008.1 |
| 20260506190026 | 57 | 169 | 3.0 | 10.0 | 0.04 | 0.05 | 0.05 | 93 | 1008.0 |
| 20260506184523 | 58 | 141 | 1.0 | 10.0 | 0.04 | 0.04 | 0.04 | 92 | 1008.3 |
| 20260506183022 | 58 | 56 | 1.0 | 9.0 | 0.02 | 0.02 | 0.02 | 91 | 1008.0 |
| 20260506181522 | 59 | 78 | 2.0 | 12.0 | 0.01 | 0.01 | 0.01 | 89 | 1008.4 |
| 20260506180018 | 59 | 150 | 2.0 | 8.0 | 0.01 | 0.01 | 0.01 | 87 | 1008.8 |
| 20260506174517 | 60 | 151 | 2.0 | 14.0 | 0.00 | 0.00 | 0.00 | 85 | 1009.1 |
| 20260506173015 | 61 | 163 | 3.0 | 14.0 | 0.00 | 0.00 | 0.00 | 83 | 1009.2 |
| 20260506171519 | 61 | 133 | 5.0 | 14.0 | 0.00 | 0.00 | 0.00 | 80 | 1009.3 |
| 20260506170012 | 62 | 192 | 7.0 | 14.0 | 0.00 | 0.00 | 0.00 | 80 | 1009.6 |
| 20260506164511 | 63 | 188 | 5.0 | 20.0 | 0.00 | 0.00 | 0.00 | 79 | 1009.6 |
| 20260506163011 | 64 | 97 | 3.0 | 18.0 | 0.00 | 0.00 | 0.00 | 78 | 1009.6 |
| 20260506161511 | 64 | 185 | 6.0 | 19.0 | 0.00 | 0.00 | 0.00 | 78 | 1009.8 |
| 20260506160013 | 64 | 115 | 5.0 | 17.0 | 0.00 | 0.00 | 0.00 | 77 | 1010.0 |
| 20260506154508 | 65 | 107 | 3.0 | 14.0 | 0.00 | 0.00 | 0.00 | 75 | 1009.9 |
| 20260506153010 | 66 | 132 | 2.0 | 13.0 | 0.00 | 0.00 | 0.00 | 74 | 1009.8 |
| 20260506151507 | 66 | 194 | 4.0 | 14.0 | 0.00 | 0.00 | 0.00 | 73 | 1009.8 |
| 20260506150005 | 67 | 221 | 5.0 | 12.0 | 0.00 | 0.00 | 0.00 | 73 | 1010.0 |
| 20260506144507 | 67 | 119 | 5.0 | 11.0 | 0.00 | 0.00 | 0.00 | 74 | 1010.1 |
| 20260506143004 | 66 | 169 | 3.0 | 13.0 | 0.00 | 0.00 | 0.00 | 74 | 1010.1 |
| 20260506141559 | 65 | 161 | 3.0 | 14.0 | 0.00 | 0.00 | 0.00 | 76 | 1010.3 |
| 20260506140057 | 64 | 148 | 3.0 | 16.0 | 0.00 | 0.00 | 0.00 | 77 | 1010.2 |
| 20260506134600 | 64 | 144 | 6.0 | 17.0 | 0.00 | 0.00 | 0.00 | 77 | 1010.2 |
| 20260506133059 | 64 | 142 | 5.0 | 11.0 | 0.00 | 0.00 | 0.00 | 78 | 1009.9 |
| 20260506131551 | 63 | 206 | 5.0 | 13.0 | 0.00 | 0.00 | 0.00 | 80 | 1010.1 |
| 20260506130051 | 63 | 245 | 3.0 | 12.0 | 0.00 | 0.00 | 0.00 | 81 | 1010.3 |
| 20260506124547 | 63 | 69 | 4.0 | 12.0 | 0.00 | 0.00 | 0.00 | 83 | 1010.7 |
| 20260506123043 | 60 | 96 | 3.0 | 11.0 | 0.00 | 0.00 | 0.00 | 87 | 1010.7 |
| 20260506121542 | 59 | 198 | 3.0 | 14.0 | 0.00 | 0.00 | 0.00 | 88 | 1010.8 |
| 20260506120043 | 59 | 172 | 4.0 | 13.0 | 0.00 | 0.00 | 0.00 | 88 | 1010.7 |
| 20260506114540 | 58 | 136 | 7.0 | 17.0 | 0.00 | 0.00 | 0.00 | 89 | 1010.7 |
| 20260506113039 | 58 | 163 | 3.0 | 13.0 | 0.00 | 0.00 | 0.00 | 91 | 1010.8 |
| 20260506111537 | 57 | 200 | 5.0 | 17.0 | 0.00 | 0.00 | 0.00 | 92 | 1010.9 |
| 20260506110039 | 57 | 160 | 4.0 | 14.0 | 0.00 | 0.00 | 0.00 | 92 | 1010.8 |
| 20260506104535 | 56 | 116 | 2.0 | 10.0 | 0.00 | 0.00 | 0.00 | 92 | 1010.8 |
| 20260506103034 | 56 | 166 | 5.0 | 12.0 | 0.00 | 0.00 | 0.00 | 92 | 1010.7 |
| 20260506101532 | 56 | 135 | 5.0 | 10.0 | 0.00 | 0.00 | 0.00 | 92 | 1010.6 |
| 20260506100031 | 56 | 153 | 4.0 | 12.0 | 0.00 | 0.00 | 0.00 | 91 | 1010.6 |
| 20260506094529 | 56 | 191 | 2.0 | 10.0 | 0.00 | 0.00 | 0.00 | 91 | 1010.6 |
| 20260506093034 | 56 | 136 | 0.0 | 10.0 | 0.00 | 0.00 | 0.00 | 90 | 1010.7 |
| 20260506091527 | 56 | 180 | 5.0 | 12.0 | 0.00 | 0.00 | 0.00 | 90 | 1010.8 |
| 20260506090026 | 56 | 202 | 6.0 | 12.0 | 0.00 | 0.00 | 0.00 | 90 | 1010.9 |
| 20260506084532 | 56 | 115 | 5.0 | 11.0 | 0.00 | 0.00 | 0.00 | 89 | 1010.8 |
| 20260506083020 | 56 | 209 | 3.0 | 15.0 | 0.00 | 0.00 | 0.00 | 89 | 1010.8 |
| 20260506081518 | 56 | 182 | 4.0 | 12.0 | 0.00 | 0.00 | 0.00 | 89 | 1010.9 |
| 20260506073011 | 57 | 129 | 3.0 | 10.0 | 0.00 | 0.00 | 0.00 | 87 | 1010.8 |
| 20260506071509 | 57 | 136 | 3.0 | 17.0 | 0.00 | 0.00 | 0.00 | 87 | 1010.9 |
| 20260506061501 | 58 | 138 | 6.0 | 14.0 | 0.00 | 0.00 | 0.00 | 85 | 1010.9 |
| 20260506044550 | 59 | 168 | 5.0 | 12.0 | 0.00 | 0.00 | 0.00 | 82 | 1011.6 |
| 20260506043042 | 59 | 197 | 5.0 | 13.0 | 0.00 | 0.00 | 0.00 | 81 | 1011.7 |
| 20260506041549 | 60 | 188 | 6.0 | 14.0 | 0.00 | 0.00 | 0.00 | 80 | 1011.5 |
| 20260506040039 | 60 | 207 | 3.0 | 16.0 | 0.00 | 0.00 | 0.00 | 79 | 1011.5 |
| 20260506034533 | 60 | 198 | 5.0 | 16.0 | 0.00 | 0.00 | 0.00 | 78 | 1011.6 |
| 20260506033030 | 61 | 226 | 3.0 | 12.0 | 0.00 | 0.00 | 0.00 | 76 | 1011.4 |
| 20260506031530 | 61 | 153 | 6.0 | 23.0 | 0.00 | 0.00 | 0.00 | 74 | 1011.3 |
| 20260506030028 | 61 | 158 | 6.0 | 15.0 | 0.00 | 0.00 | 0.00 | 73 | 1011.3 |